Regional Weather Roundup
Issued by NWS

Home | Current Version | Previous Version | Text Only | Print | Product List | Glossary Off
Versions: 1 2 3 4 5 6 7 8 9 10 11 12 13 14 15 16 17 18 19 20 21 22 23 24 25 26 27 28 29 30 31 32 33 34 35 36 37 38 39 40 41 42 43 44 45 46 47 48 49 50

000
ASUS45 KBOU 011707
RWRCO

WEATHER ROUNDUP FOR COLORADO
NATIONAL WEATHER SERVICE DENVER/BOULDER CO
1100 AM MDT MON SEP 01 2014

NOTE: "FAIR" INDICATES FEW OR NO CLOUDS BELOW 12000 FEET WITH NO
SIGNIFICANT WEATHER AND/OR OBSTRUCTIONS TO VISIBILITY.

COZ001>005-013-030-031-011800-
...NORTHWEST COLORADO...

CITY           SKY/WX    TMP DP  RH WIND       PRES   REMARKS
CRAIG          SUNNY     64  41  42 N3        30.15F
HAYDEN         SUNNY     61  37  41 E3        30.17S
MEEKER         SUNNY     63  37  38 CALM      30.17S
MOUNT WERNER   NOT AVBL
STEAMBOAT SPGS SUNNY     59  39  46 SE3       30.18F
WALDEN         SUNNY     55  30  38 SW7G16    30.22S
$$

COZ006>008-011-011800-
...WEST CENTRAL VALLEYS...

CITY           SKY/WX    TMP DP  RH WIND       PRES   REMARKS
GRAND JUNCTION SUNNY     71  36  27 S6        30.08S
MONTROSE       SUNNY     70  37  29 CALM      30.15F
EAGLE          MOSUNNY   63  41  45 CALM      30.19F
RIFLE          SUNNY     64  42  44 VRB3      30.13F
DELTA          SUNNY     73  41  31 S5        30.11F
NUCLA          SUNNY     72  32  23 CALM      30.17S
$$

COZ017>023-064>068-011800-
...SOUTHWEST COLORADO...

CITY           SKY/WX    TMP DP  RH WIND       PRES   REMARKS
DURANGO        SUNNY     73  35  25 SW7       30.19S
CORTEZ         SUNNY     75  37  25 SW6       30.15S
PAGOSA SPRINGS NOT AVBL
TELLURIDE      SUNNY     66  28  24 W9G20     30.34S
WOLF CREEK PAS SUNNY     50  32  50 SW14G24   30.51S
$$

COZ009-010-012-014-032>034-037-058>063-011800-
...CENTRAL COLORADO...

CITY           SKY/WX    TMP DP  RH WIND       PRES   REMARKS
ASPEN          SUNNY     65  34  31 N12       30.22S
BUENA VISTA    MOSUNNY   67  30  25 SE3       30.20F
COPPER MTN     PTSUNNY   50  28  43 W28G35    30.44S
BERTHOUD PASS  FAIR      36  36 100 NW26G47   30.44S
COTTONWOOD PAS SUNNY     63  23  22 W6G32     30.33S
GUNNISON       SUNNY     61  34  36 SW5       30.26F
KREMMLING      SUNNY     59  36  41 CALM      30.22F
LEADVILLE      SUNNY     57  28  33 W15G25    30.32R
MONARCH PASS   SUNNY     46  28  49 SW25G37   30.56R
SALIDA         SUNNY     74  29  19 SW17G30   30.25S
SUNLIGHT       SUNNY     54  36  50 CALM      30.42R
WILKERSON PASS NOT AVBL
$$

COZ069>075-011800-
...SAN LUIS VALLEY/SANGRE DE CRISTO MOUNTAINS...

CITY           SKY/WX    TMP DP  RH WIND       PRES   REMARKS
ALAMOSA        SUNNY     71  31  22 VRB3      30.21S
LA VETA PASS   NOT AVBL
SAGUACHE       NOT AVBL
$$

COZ035-036-038>040-011800-
...NORTHERN COLORADO FRONT RANGE...

CITY           SKY/WX    TMP DP  RH WIND       PRES   REMARKS
DENVER INTL AP MOSUNNY   69  49  48 S10       30.07S
DMNS CITY PARK   N/A     69  50  49 S5        30.06F
AURORA         MOSUNNY   68  48  49 S7        30.09S
FRONT RANGE AP NOT AVBL
ERIE MUNI ARPT SUNNY     70  45  41 E3        30.06F
BOULDER MUN AP SUNNY     70  46  43 E3        30.06F
CENTENNIAL     MOSUNNY   66  48  52 VRB6      30.09F
BROOMFIELD     MOSUNNY   68  46  45 E5        30.09S
FORT COLLINS   SUNNY     66  46  48 S7        30.07S
LONGMONT       SUNNY     70  46  42 S7        30.07F
$$

COZ041-046-047-076>085-087-088-011800-
...PIKES PEAK/PALMER DIVIDE AND SOUTHERN FOOTHILLS...

CITY           SKY/WX    TMP DP  RH WIND       PRES   REMARKS
COLO. SPRINGS  MOSUNNY   67  47  48 S18G26    30.13F
A. F. ACADEMY  SUNNY     65  48  52 SE13      30.13F
ELLICOTT       SUNNY     67  45  45 S17G23    30.13S
FALCON         SUNNY     63  46  53 S14G22    30.18S
FORT CARSON    SUNNY     68  49  49 S18       30.11F
LIMON          SUNNY     70  45  40 S17       30.09F
MONUMENT HILL  SUNNY     63  45  51 S17       30.15S
TRINIDAD       SUNNY     71  47  42 VRB7      30.11F
$$

COZ042>045-048>051-090-091-011800-
...NORTHEAST COLORADO...

CITY           SKY/WX    TMP DP  RH WIND       PRES   REMARKS
GREELEY ARPT   SUNNY     70  46  43 S9        30.06F
AKRON          CLOUDY    65  48  54 SW9       30.07F
BURLINGTON     SUNNY     70  46  42 CALM      30.06F
WRAY             N/A     70  51  51 S7        30.05R
STERLING       CLOUDY    70  52  52 S6        30.04S
HOLYOKE        RAIN      63  55  77 SW3       30.04S
FORT MORGAN    MOSUNNY   68  46  45 S5        30.06F
$$

COZ086-089-092>099-011800-
...SOUTHEAST COLORADO...

CITY           SKY/WX    TMP DP  RH WIND       PRES   REMARKS
PUEBLO         SUNNY     71  46  40 SE10      30.06F
LA JUNTA       SUNNY     73  45  36 CALM      30.05F
LAMAR          SUNNY     73  49  42 CALM      30.01F
SPRINGFIELD      N/A     74  46  36 N9        30.04F
$$


USA.gov is the U.S. government's official web portal to all federal, state and local government web resources and services.